INTELSAT 31 (IS-31)

Last updated on Sat Aug 15 2026 00:03:00 GMT+0000 (Coordinated Universal Time)

1 41581U 16035A 26226.54916265 -.00000166 00000+0 00000+0 0 9992 2 41581 0.0473 256.8099 0001227 63.2414 105.5497 1.00274344 37260
UTC large
Height (km)
Speed (km/s)
/
Latitude / Longitude
Inclination (degrees)
Orbital Period (minutes)
Azimuth
Elevation
Range (km)
Doppler Factor

Next 0 passes for location: London (51.5072 / 0.1276)

No passes found over London.
INTELSAT 31 (IS-31)